TimePDT,TemperatureF,Dew PointF,Humidity,Sea Level PressureIn,VisibilityMPH,Wind Direction,Wind SpeedMPH,Gust SpeedMPH,PrecipitationIn,Events,Conditions,WindDirDegrees,DateUTC
12:15 AM,57.2,44.6,63,29.92,10.0,South,6.9,-,N/A,,Clear,180,2012-10-11 07:15:00
12:55 AM,57.2,44.6,63,29.92,10.0,South,4.6,-,N/A,,Mostly Cloudy,180,2012-10-11 07:55:00
1:15 AM,57.2,44.6,63,29.91,10.0,SSE,4.6,-,N/A,,Mostly Cloudy,150,2012-10-11 08:15:00
1:35 AM,55.4,44.6,67,29.91,10.0,SE,5.8,-,N/A,,Clear,140,2012-10-11 08:35:00
1:55 AM,55.4,44.6,67,29.91,10.0,SSE,6.9,-,N/A,,Clear,160,2012-10-11 08:55:00
2:15 AM,57.2,44.6,63,29.91,10.0,SSE,5.8,-,N/A,,Scattered Clouds,160,2012-10-11 09:15:00
2:35 AM,57.2,44.6,63,29.91,10.0,SSE,3.5,-,N/A,,Mostly Cloudy,150,2012-10-11 09:35:00
2:55 AM,55.4,44.6,67,29.90,10.0,SSE,3.5,-,N/A,,Clear,150,2012-10-11 09:55:00
3:15 AM,55.4,44.6,67,29.90,10.0,SSE,4.6,-,N/A,,Scattered Clouds,150,2012-10-11 10:15:00
3:35 AM,55.4,44.6,67,29.90,10.0,SSE,5.8,-,N/A,,Mostly Cloudy,160,2012-10-11 10:35:00
3:55 AM,55.4,44.6,67,29.89,10.0,SSE,4.6,-,N/A,,Mostly Cloudy,150,2012-10-11 10:55:00
4:15 AM,57.2,44.6,63,29.89,10.0,SE,3.5,-,N/A,,Mostly Cloudy,130,2012-10-11 11:15:00
4:35 AM,55.4,44.6,67,29.88,10.0,SE,4.6,-,N/A,,Mostly Cloudy,140,2012-10-11 11:35:00
4:55 AM,57.2,44.6,63,29.89,10.0,SE,3.5,-,N/A,,Overcast,130,2012-10-11 11:55:00
5:15 AM,57.2,44.6,63,29.88,10.0,SSE,3.5,-,N/A,,Overcast,150,2012-10-11 12:15:00
5:35 AM,57.2,46.4,67,29.89,10.0,South,3.5,-,N/A,,Overcast,180,2012-10-11 12:35:00
5:55 AM,57.2,46.4,67,29.89,10.0,South,6.9,-,N/A,,Overcast,190,2012-10-11 12:55:00
6:15 AM,57.2,44.6,63,29.89,10.0,SSW,5.8,-,N/A,,Overcast,210,2012-10-11 13:15:00
6:35 AM,59.0,44.6,59,29.89,10.0,South,3.5,-,N/A,,Overcast,170,2012-10-11 13:35:00
6:55 AM,57.2,46.4,67,29.89,10.0,SSE,4.6,-,N/A,,Overcast,160,2012-10-11 13:55:00
7:15 AM,57.2,46.4,67,29.89,10.0,SE,3.5,-,N/A,,Overcast,140,2012-10-11 14:15:00
7:35 AM,59.0,46.4,63,29.89,10.0,SE,3.5,-,N/A,,Overcast,130,2012-10-11 14:35:00
7:55 AM,59.0,46.4,63,29.90,10.0,Calm,Calm,-,N/A,,Overcast,0,2012-10-11 14:55:00
8:15 AM,60.8,44.6,55,29.91,10.0,Calm,Calm,-,N/A,,Overcast,0,2012-10-11 15:15:00
8:35 AM,60.8,44.6,55,29.91,10.0,SSW,3.5,-,N/A,,Overcast,200,2012-10-11 15:35:00
8:55 AM,60.8,46.4,59,29.91,10.0,SSW,5.8,-,N/A,,Overcast,200,2012-10-11 15:55:00
9:15 AM,60.8,48.2,63,29.92,10.0,SW,6.9,-,N/A,Thunderstorm,Thunderstorm,220,2012-10-11 16:15:00
9:35 AM,60.8,48.2,63,29.93,10.0,WSW,9.2,-,N/A,,Overcast,240,2012-10-11 16:35:00
9:55 AM,60.8,50.0,68,29.93,10.0,WSW,9.2,-,N/A,,Overcast,240,2012-10-11 16:55:00
10:15 AM,60.8,51.8,72,29.93,10.0,WSW,10.4,-,N/A,,Overcast,240,2012-10-11 17:15:00
10:55 AM,60.8,51.8,72,29.94,10.0,SW,5.8,-,N/A,,Overcast,230,2012-10-11 17:55:00
11:15 AM,60.8,51.8,72,29.95,10.0,West,4.6,-,N/A,,Overcast,270,2012-10-11 18:15:00
11:35 AM,60.8,51.8,72,29.95,10.0,West,5.8,-,N/A,,Overcast,280,2012-10-11 18:35:00
11:55 AM,60.8,50.0,68,29.95,10.0,WSW,3.5,-,N/A,,Overcast,250,2012-10-11 18:55:00
12:15 PM,60.8,51.8,72,29.95,10.0,Calm,Calm,-,N/A,,Overcast,0,2012-10-11 19:15:00
12:35 PM,60.8,51.8,72,29.95,10.0,WSW,5.8,-,N/A,,Overcast,240,2012-10-11 19:35:00
12:55 PM,60.8,51.8,72,29.94,10.0,Calm,Calm,-,N/A,,Overcast,0,2012-10-11 19:55:00
1:15 PM,62.6,51.8,68,29.93,10.0,Calm,Calm,-,N/A,,Overcast,0,2012-10-11 20:15:00
1:55 PM,64.4,51.8,64,29.93,10.0,NNE,5.8,-,N/A,,Overcast,20,2012-10-11 20:55:00
2:15 PM,62.6,51.8,68,29.93,10.0,North,5.8,-,N/A,,Overcast,350,2012-10-11 21:15:00
3:35 PM,62.6,53.6,72,29.93,10.0,NNE,6.9,-,0.03,,Overcast,30,2012-10-11 22:35:00
3:55 PM,62.6,53.6,72,29.93,10.0,NE,4.6,-,0.03,,Overcast,50,2012-10-11 22:55:00
4:35 PM,62.6,50.0,63,29.92,10.0,NW,5.8,-,N/A,,Overcast,320,2012-10-11 23:35:00
4:55 PM,62.6,48.2,59,29.92,10.0,NNW,9.2,-,N/A,,Overcast,340,2012-10-11 23:55:00
5:15 PM,62.6,51.8,68,29.92,10.0,NW,8.1,-,N/A,,Overcast,320,2012-10-12 00:15:00
5:35 PM,62.6,50.0,63,29.92,10.0,NW,9.2,-,N/A,,Overcast,310,2012-10-12 00:35:00
6:15 PM,62.6,50.0,63,29.92,10.0,NNW,4.6,-,N/A,,Overcast,330,2012-10-12 01:15:00
6:35 PM,62.6,50.0,63,29.93,10.0,NE,4.6,-,N/A,,Overcast,40,2012-10-12 01:35:00
6:55 PM,62.6,50.0,63,29.93,10.0,North,3.5,-,N/A,,Overcast,10,2012-10-12 01:55:00
7:15 PM,62.6,51.8,68,29.93,10.0,NE,3.5,-,N/A,,Overcast,40,2012-10-12 02:15:00
7:35 PM,60.8,51.8,72,29.93,10.0,East,3.5,-,N/A,,Overcast,90,2012-10-12 02:35:00
7:55 PM,60.8,51.8,72,29.95,10.0,East,6.9,-,N/A,,Overcast,80,2012-10-12 02:55:00
8:55 PM,57.2,51.8,82,29.95,10.0,Calm,Calm,-,N/A,,Overcast,0,2012-10-12 03:55:00
9:15 PM,57.2,51.8,82,29.95,10.0,SE,5.8,-,N/A,,Overcast,130,2012-10-12 04:15:00
9:35 PM,57.2,51.8,82,29.96,10.0,SSE,3.5,-,N/A,,Overcast,150,2012-10-12 04:35:00
9:55 PM,57.2,51.8,82,29.96,10.0,Calm,Calm,-,N/A,,Mostly Cloudy,0,2012-10-12 04:55:00
10:15 PM,57.2,51.8,82,29.96,10.0,SE,3.5,-,N/A,,Mostly Cloudy,130,2012-10-12 05:15:00
10:35 PM,57.2,51.8,82,29.97,10.0,Calm,Calm,-,N/A,,Overcast,0,2012-10-12 05:35:00
10:55 PM,57.2,51.8,82,29.97,10.0,Calm,Calm,-,N/A,,Overcast,0,2012-10-12 05:55:00
11:15 PM,57.2,53.6,88,29.97,10.0,Calm,Calm,-,N/A,,Overcast,0,2012-10-12 06:15:00
11:35 PM,57.2,53.6,88,29.97,10.0,SW,4.6,-,N/A,,Overcast,230,2012-10-12 06:35:00
11:55 PM,57.2,53.6,88,29.98,10.0,South,4.6,-,N/A,,Overcast,170,2012-10-12 06:55:00